Tracking 20037 objects as of 20-Nov-2019
Live streaming from Space Station
objects crossing your sky now

COSMOS 614

Track COSMOS 614 now!
10-day predictions
COSMOS 614 is classified as:


NORAD ID: 6965
Int'l Code: 1973-098A
Perigee: 751.8 km
Apogee: 786.1 km
Inclination: 74.1 °
Period: 100.1 minutes
Semi major axis: 7139 km
RCS: 2.1152 m2 (large)
Launch date: December 4, 1973
Source: Commonwealth of Independent States (former USSR) (CIS)
Launch site: PLESETSK MISSILE AND SPACE COMPLEX (PKMTR)
aabbcc
Your satellite tracking list
Your tracking list is empty




NASA's NSSDC Master Catalog

Two Line Element Set (TLE):
1  6965U 73098A   19324.05948487  .00000020  00000-0  14990-4 0  9996
2  6965  74.0545 142.0274 0023982 310.5827  49.3240 14.38996473409169
Source of the keplerian elements: AFSPC